CZ-3A DEB, 40813

Orbit data source: Space-Track

CZ-3A DEB, 40813 is space debris in HEO originally from a launch on Fri, 02 Feb 2007 UTC launched from the Xichang Space Center, China (XSC). Debris objects in space refer to the collection of defunct objects orbiting the Earth. Examples of debris include non-operational satellites, rocket bodies, and fragments generated from explosions, collisions, or faulty payload assembly.

Loading next visibility...
Identifier
40813, 2007-003AS
Orbit
HEO
Country
Flag of CNCN / PRC
Related business
Manufacturer
Unknown
Mission
Spacecraft
Bus & Motor
Unknown
Mass
Unknown
Launch date (UTC)
2007-02-02 (19 years ago)
Launch vehicle
Unknown
Launch site
Xichang Space Center, China (XSC)
Object type
Payload
Rocket body
Debris
Shape & HBR
Unknown shape, 0.3 m
Radar Cross Section
Medium (>0.1 m² and <1 m²)

Expand to show TLE details & history
Last TLE update: 5 days ago

TLE from 5 days ago
0 CZ-3A DEB
1 40813U 07003AS  25286.69666333  .00002192  00000-0  21038-1 0  9990
2 40813  25.8949 122.1411 7668342  90.4305 348.2815  1.72010575 80214
Epoch: 2025-10-13T16:43Z
TLE epoch observation values (Epoch: 2025-10-13T16:43:11.711Z)
Latitude
-0.00004°
Longitude
-151.03398°
Altitude
5,740.815 km
Speed
7.227 km/s
True Right ascension
08h 09m 02s
True Declination
0° 00' 00"
Sunlit
Object was in daylight at epoch
Visualization orbit readout
Latitude
Unknown
Longitude
Unknown
Altitude
Unknown
Speed
Unknown
Apparent Right ascension
Unknown
Apparent Declination
Unknown
Sunlit
N/A
Visualization observer readout
Local Sidereal Time
10:38:03
Azimuth
Unknown
Elevation
Unknown
Doppler factor
Unknown
Orbital elements
Apogee altitude
45,615.97 km
Perigee altitude
483.428 km
Semi-major axis
29,427.836 km
Eccentricity
0.76683
Inclination
25.8949°
RAAN
122.1411°
Arg. of periapsis
90.4305°
True anomaly
270.04051°
Mean anomaly
348.2815°
Eccentric anomaly
320.09644°
Mean motion
0.42994 °/min
Orbital period
837.33 mins
BSTAR
0.021038
Loading maneuver chart data...
Computing Atmospheric mass density...
Loading historical data...
Loading historical data...
Loading historical data...
Loading historical data...
Loading historical data...
Loading historical data...
Loading historical data...

Documentation

Showing up to 5 results
|